Location: Cahas Mountain Overlook
(37.0833°N, 80.1000°W)
Time: 08:33:47
(UTC-05:00)

S-56A Canister/Altair - Pass Details

Date: 29 November 2023
Orbit: 640 x 2488 km, 38.9° (Epoch: 25 February)

Event Time Altitude Azimuth Distance (km) Brightness Sun altitude
Rises 15:39:29 0° 272° (W) 2,994 11.4 13.2°
Reaches altitude 10° 15:41:36 10° 274° (W) 2,159 10.7 12.9°
Maximum altitude 15:46:28 74° 360° (N) 865 7.9 12.1°
Drops below altitude 10° 15:53:15 10° 85° (E) 2,962 10.1 11.1°
Sets 15:56:36 0° 88° (E) 4,214 10.8 10.6°
